Weather in Borovlyanka

Russia / Kurgan Oblast     56°14′31″N   65°28′01″E
temp.,
°C
wind,
m/s
gust,
m/s
humid.,
%
clouds,
%
prec.,
mm/h
press.,
hPa
HPBL,
m
18 september, sat
sat1823:00+5wnw4108789 0.3 1004638
02:00+2wnw4109174 0.0 1006325
05:00+2w41086100 0.0 1007333
08:00+4w49795 0.0 1007379
11:00+9w464864 0.0 10061470
14:00+9w4651100 0.0 10051497
17:00+8wsw476474 0.3 10051166
20:00+4w3107367 0.0 1005273
19 september, sun
sun1923:00+3w411795 0.0 1005365
02:00+2w512805 0.0 1005508
05:00+2w4981100 0.0 1005821
08:00+2w5992100 0.0 1006642
11:00+4wnw61080100 0.2 10071039
14:00+5wnw61177100 0.4 10081249
17:00+5wnw51174100 0.8 10091386
20:00+4wnw4118484 0.1 10111048
20 september, mon
mon2023:00+4wnw5117686 0.3 10121000
02:00+3nw5117680 0.0 1014884
05:00+3wnw51076100 0.0 10161129
08:00+3wnw51078100 0.0 1018744
11:00+5nw576997 0.0 10201052
14:00+6nw5762100 0.2 10221265
17:00+6nnw4767100 0.4 10231091
20:00+4nnw3879100 0.1 1025506
21 september, tue
tue2123:00+2nw388970 0.3 1026357
02:000nw379774 0.0 1027174
05:00−1nw279943 0.0 1028171
08:00+2nw368294 0.0 1029392
11:00+5nw346295 0.0 10281101
14:00+8nw34455 0.0 10271260
17:00+9wnw34455 0.0 10261237
20:00+4wsw226321 0.0 102524
22 september, wed
wed2223:00+3wsw2465100 0.0 102474
02:00+2wsw377098 0.0 1023126
05:00+2wsw387574 0.0 1022164
08:00+3wnw36715 0.0 1022195
11:00+9nnw345311 0.0 1022867
14:00+11nnw454517 0.0 10211530
17:00+8n476072 0.0 1022694
20:00+5nnw257598 0.0 1023126